Location: Little Suamico
(44.7175°N, 88.0093°W)
Time: 17:24:31
(UTC+00:00)

ISS - Pass Details

Date: 29 April 2021
Orbit: 417 x 422 km, 51.6° (Epoch: 17 May)

Event Time Altitude Azimuth Distance (km) Brightness Sun altitude
Exits shadow 09:14:36 29° 208° (SSW) 795 -2.9 -14.6°
Maximum altitude 09:16:01 54° 144° (SE) 515 -3.4 -14.4°
Drops below altitude 10° 09:19:20 10° 66° (ENE) 1,507 0.4 -14.0°
Sets 09:21:28 0° 62° (ENE) 2,375 1.9 -13.7°
